This demonstration page uses our WeatherBlox Daily Observations layout. Learn more.

Left ArrowRight Arrow

41.86663, -103.66717

Hourly Observations for July 29, 2020

Temp ( °F °C ) Dew Point ( °F °C ) Humidity (%) Winds ( mph kmh ) Pressure ( in mb ) Visibility ( mi km ) Precip ( " mm )
12:53 am 00:53 Mostly Clear 65 18.3 59 15 81 81 E 5 7 29.84 1011 10 16 N/A
1:53 am 01:53 Clear 64 17.8 58 14.4 81 81 ESE 6 9 29.81 1010 10 16 N/A
2:53 am 02:53 Clear 64 17.8 58 14.4 81 81 SE 3 6 29.80 1009 10 16 N/A
3:53 am 03:53 Clear 61 16.1 58 14.4 90 90 E 6 9 29.80 1009 10 16 N/A
4:53 am 04:53 Clear 58 14.4 56 13.3 93 93 NNE 6 9 29.83 1010 10 16 N/A
5:53 am 05:53 Sunny 58 14.4 56 13.3 93 93 N N/A 29.85 1011 10 16 N/A
6:53 am 06:53 Sunny 63 17.2 58 14.4 84 84 ENE 3 6 29.85 1011 10 16 N/A
7:53 am 07:53 Sunny 68 20 59 15 73 73 ENE 3 6 29.85 1011 10 16 N/A
8:53 am 08:53 Sunny 74 23.3 54 12.2 50 50 WNW 7 11 29.83 1010 10 16 N/A
9:53 am 09:53 Sunny 79 26.1 53 11.7 41 41 NW 10 17 29.83 1010 10 16 N/A
10:53 am 10:53 Sunny 84 28.9 53 11.7 34 34 W 12 19 29.82 1010 10 16 N/A
11:53 am 11:53 Sunny 87 30.6 51 10.6 29 29 W 14 22 29.82 1010 10 16 N/A
12:53 pm 12:53 Sunny 89 31.7 50 10 26 26 WNW 9 15 29.81 1010 10 16 N/A
1:53 pm 13:53 Sunny 91 32.8 50 10 25 25 VRB 7 11 29.79 1009 10 16 N/A
2:33 pm 14:33 Partly Cloudy with Nearby Thunderstorms 92 33.3 50 10 24 24 W 13 20 29.58 1002 10 16 N/A
2:53 pm 14:53 Partly Cloudy with Nearby Thunderstorms 88 31.1 52 11.1 29 29 WNW 13 20 29.80 1009 10 16 N/A
3:31 pm 15:31 Cloudy with Light Rain 77 25 58 14.4 52 52 WNW 5 7 29.69 1006 10 16 0.00 0.00
3:53 pm 15:53 Partly Cloudy 80 26.7 59 15 49 49 WNW 7 11 29.82 1010 10 16 0.00 0.00
4:53 pm 16:53 Partly Cloudy 74 23.3 58 14.4 57 57 NNE 26 43 29.88 1012 10 16 0.00 0.00
5:30 pm 17:30 Cloudy with Nearby Thunderstorms 72 22.2 60 15.6 66 66 NW 25 41 29.83 1010 10 16 0.01 0.25
5:38 pm 17:38 Cloudy with Thunderstorms 64 17.8 59 15 84 84 NW 25 41 29.88 1012 4 6 0.02 0.51
5:53 pm 17:53 Windy with Storms Likely 66 18.9 62 16.7 87 87 N 26 43 29.93 1014 3 4 0.13 3.30
6:00 pm 18:00 Cloudy with Thunderstorms 66 18.9 62 16.7 87 87 N 16 26 29.85 1011 8 13 0.00 0.00
6:14 pm 18:14 Mostly Cloudy with Nearby Thunderstorms 66 18.9 63 17.2 90 90 NNE 12 19 29.85 1011 10 16 0.00 0.00
6:34 pm 18:34 Cloudy with Light Rain 65 18.3 65 18.3 100 100 WNW 5 7 29.87 1011 7 11 0.02 0.51
6:53 pm 18:53 Mostly Cloudy with Light Rain 66 18.9 65 18.3 96 96 NW 8 13 29.93 1014 10 16 0.03 0.76
7:53 pm 19:53 Sunny 66 18.9 64 17.8 93 93 WNW 7 11 29.93 1014 10 16 0.00 0.00
8:53 pm 20:53 Mostly Clear 66 18.9 64 17.8 93 93 W 6 9 29.97 1015 10 16 N/A
9:42 pm 21:42 Mostly Cloudy 65 18.3 62 16.7 90 90 NNW 3 6 29.94 1014 10 16 N/A
9:53 pm 21:53 Mostly Cloudy 65 18.3 61 16.1 87 87 NNW 5 7 29.99 1016 10 16 N/A
10:08 pm 22:08 Mostly Cloudy 65 18.3 62 16.7 90 90 NW 3 6 29.95 1014 10 16 N/A
10:53 pm 22:53 Cloudy 64 17.8 62 16.7 93 93 NW 7 11 29.99 1016 10 16 N/A
11:53 pm 23:53 Partly Cloudy 66 18.9 63 17.2 90 90 N 8 13 29.97 1015 10 16 0.00 0.00

Powered by AerisWeather